Showing default

COSMOS 1695, 16143

Orbit data source: Space-Track

COSMOS 1695, 16143 is a payload satellite owned by GUKOS (CIS) in LEO that was launched on Wed, 09 Oct 1985 UTC via a TSIKLON-3 launch vehicle from the Plesetsk Missile And Space Complex (PKMTR). Payload-class satellites include a variety of spacecraft equipped with specific instruments for various scientific and technological missions. These include communications satellites like Starlink; space stations such as the ISS; scientific satellites like the Hubble; Earth observation satellites from companies like Planet Labs, Umbra, and HawkEye 360; GPS; miniature CubeSats for education and research; and military/defense satellites.

Loading next visibility...
Identifier
16143, 1985-094F
Orbit
LEO
Country
Flag of CISCIS
Related business
Manufacturer
NPO PM
Mission
Spacecraft
Bus & Motor
STRELA-3, Unknown motor
Mass
225 kg wet, 225 kg dry
Launch date (UTC)
1985-10-09 (41 years ago)
Launch vehicle
TSIKLON-3
Launch site
Plesetsk Missile And Space Complex (PKMTR)
Object type
Payload
Rocket body
Debris
Shape & HBR
Unknown
Radar Cross Section
Medium (>0.1 m² and <1 m²)

Expand to show TLE details & history
Last TLE update: 13 hours ago

TLE from 13 hours ago
0 COSMOS 1695
1 16143U 85094F   26126.96924435  .00000008  00000-0 -12415-4 0  9996
2 16143  82.5998 294.5688 0006620 207.2091 271.9466 12.62895499870291
Epoch: 2026-05-06T23:15Z
TLE epoch observation values (Epoch: 2026-05-06T23:15:42.711Z)
Latitude
60.16127°
Longitude
-112.20251°
Altitude
1,421.039 km
Speed
7.156 km/s
True Right ascension
06h 46m 11s
True Declination
60° 01' 31"
Sunlit
Object was in daylight at epoch
Visualization orbit readout
Latitude
Unknown
Longitude
Unknown
Altitude
Unknown
Speed
Unknown
Apparent Right ascension
Unknown
Apparent Declination
Unknown
Sunlit
N/A
Visualization observer readout
Local Sidereal Time
19:55:03
Azimuth
Unknown
Elevation
Unknown
Doppler factor
Unknown
Orbital elements
Apogee altitude
1,413.49 km
Perigee altitude
1,403.18 km
Semi-major axis
7,786.472 km
Eccentricity
0.00066
Inclination
82.5998°
RAAN
294.5688°
Arg. of periapsis
207.2091°
True anomaly
271.87078°
Mean anomaly
271.9466°
Eccentric anomaly
271.90869°
Mean motion
3.15887 °/min
Orbital period
113.96 mins
BSTAR
-0.000012415
Loading maneuver chart data...
Computing Atmospheric mass density...
Loading historical data...
Loading historical data...
Loading historical data...
Loading historical data...
Loading historical data...
Loading historical data...
Loading historical data...

Documentation

Showing up to 5 results
|